FAB2336 SBMT-SBYS

Flight info

Callsign FAB2336
Flight time N/A
Altitude FL100
Route SBYS EGUTO BGC ESIGA SBYS
Aircraft E110/M-VD/A

Departure

Time 2026-04-30 15:00
Airport Campo de Marte Airport (SBMT)

Arrival

Time N/A
Airport Campo Fontenelle (SBYS)
Time Latitude Longitude Altitude Speed Heading
2026-04-30 14:53 -23.50757 -46.63004 2372 ft 0 kts 10°
2026-04-30 14:55 -23.50762 -46.63005 2372 ft 2 kts 10°
2026-04-30 14:55 -23.50760 -46.63064 2372 ft 23 kts 263°
2026-04-30 14:56 -23.50879 -46.63308 2372 ft 11 kts 185°
2026-04-30 14:56 -23.50913 -46.63315 2372 ft 0 kts 188°
2026-04-30 14:57 -23.50939 -46.63538 2372 ft 44 kts 281°
2026-04-30 14:58 -23.50853 -46.64067 2372 ft 26 kts 279°
2026-04-30 14:58 -23.50834 -46.64179 2371 ft 0 kts 96°
2026-04-30 14:59 -23.50841 -46.64135 2372 ft 23 kts 100°
2026-04-30 15:00 -23.51011 -46.61987 2665 ft 137 kts 69°
2026-04-30 15:00 -23.50149 -46.59977 3235 ft 154 kts 68°
2026-04-30 15:01 -23.49443 -46.57702 3750 ft 163 kts 73°
2026-04-30 15:01 -23.49125 -46.56510 4004 ft 166 kts 74°
2026-04-30 15:01 -23.48509 -46.54059 4510 ft 171 kts 75°
2026-04-30 15:02 -23.48202 -46.52804 4764 ft 173 kts 75°
2026-04-30 15:02 -23.47893 -46.51533 5016 ft 175 kts 75°
2026-04-30 15:03 -23.46955 -46.47649 5770 ft 179 kts 75°
2026-04-30 15:03 -23.46323 -46.45015 6263 ft 182 kts 72°
2026-04-30 15:04 -23.45663 -46.42294 6754 ft 190 kts 73°
2026-04-30 15:04 -23.44630 -46.38015 7515 ft 199 kts 73°
2026-04-30 15:05 -23.43733 -46.34263 8007 ft 106 kts 73°
2026-04-30 15:06 -23.44030 -46.32374 7036 ft 157 kts 107°
2026-04-30 15:06 -23.44232 -46.30638 8037 ft 138 kts 87°
2026-04-30 15:07 -23.44063 -46.28074 8294 ft 180 kts 78°
2026-04-30 15:07 -23.42618 -46.25896 8829 ft 185 kts 43°
2026-04-30 15:08 -23.41212 -46.23458 9341 ft 197 kts 64°
2026-04-30 15:08 -23.38881 -46.20153 9942 ft 189 kts 359°
2026-04-30 15:09 -23.36813 -46.21486 10016 ft 182 kts 303°
2026-04-30 15:09 -23.35184 -46.23667 10002 ft 189 kts 309°
2026-04-30 15:10 -23.33264 -46.25641 10000 ft 191 kts 315°
2026-04-30 15:11 -23.29096 -46.29270 10000 ft 193 kts 317°
2026-04-30 15:11 -23.26962 -46.31038 10000 ft 193 kts 318°
2026-04-30 15:12 -23.23746 -46.33677 10000 ft 194 kts 318°
2026-04-30 15:13 -23.21599 -46.35433 10000 ft 194 kts 318°
2026-04-30 15:14 -23.17299 -46.38942 10000 ft 194 kts 318°
2026-04-30 15:14 -23.14053 -46.41590 10000 ft 196 kts 318°
2026-04-30 15:16 -23.08608 -46.46026 10000 ft 196 kts 318°
2026-04-30 15:17 -23.04245 -46.49578 10000 ft 196 kts 318°
2026-04-30 15:18 -22.98790 -46.54015 10000 ft 196 kts 318°
2026-04-30 15:19 -22.95588 -46.56758 10001 ft 194 kts 311°